Regional Weather Roundup
Issued by NWS

Home | Current Version | Previous Version | Graphics & Text | Print | Product List | Glossary On
Versions: 1 2 3 4 5 6 7 8 9 10 11 12 13 14 15 16 17 18 19 20 21 22 23 24 25 26 27 28 29 30 31 32 33 34 35 36 37 38 39 40 41 42 43 44 45 46 47 48 49 50
000
ASUS43 KOAX 302210
RWRNE

WEATHER ROUNDUP FOR NEBRASKA
NATIONAL WEATHER SERVICE OMAHA NE
400 PM CST FRI JAN 30 2015

NOTES: SATELLITE DATA IS BEING USED TO AUGMENT CLOUD COVER ABOVE
       12000 FEET.
       "FAIR" INDICATES FEW OR NO CLOUDS BELOW 12,000 FEET WITH NO
       SIGNIFICANT WEATHER AND/OR OBSTRUCTIONS TO VISIBILITY.

  * THESE STATIONS DO NOT REPORT WEATHER SUCH AS RAIN...SNOW OR FOG.

NEZ001>004-019>022-054>056-302300-
NEBRASKA PANHANDLE

CITY           SKY/WX    TMP DP  RH WIND       PRES   REMARKS
SCOTTSBLUFF    CLOUDY    43  28  55 NW6       30.10F
ALLIANCE       CLOUDY    46  27  47 N8        30.10F
CHADRON        PTSUNNY   51  25  36 NE10      30.12F
KIMBALL        CLOUDY    44  28  53 NE9       30.08S
SIDNEY         CLOUDY    46  28  49 N3        30.09F
$$

NEZ057>060-069>072-079>082-302300-
SOUTHWEST NEBRASKA

CITY           SKY/WX    TMP DP  RH WIND       PRES   REMARKS
NORTH PLATTE   CLOUDY    47  27  45 S14       30.15F
IMPERIAL       CLOUDY    50  30  46 S22G30    30.13F
LEXINGTON      CLOUDY    46  26  45 S14       30.21F
MCCOOK         CLOUDY    48  29  47 S20G26    30.21S
OGALLALA       CLOUDY    51  32  48 S6        30.11F
$$

NEZ005>010-023>029-035>040-094-302300-
NORTH CENTRAL NEBRASKA

CITY           SKY/WX    TMP DP  RH WIND       PRES   REMARKS
VALENTINE      MOSUNNY   52  26  36 SW14      30.13S
AINSWORTH      MOSUNNY   50  24  35 SW10      30.14S
BROKEN BOW     CLOUDY    46  27  47 S17G26    30.19F
O`NEILL        MOSUNNY   46  28  48 S15G22    30.18F
ORD            CLOUDY    45  24  43 S17G25    30.20F
THEDFORD       CLOUDY    49  29  46 S13G20    30.15S
$$

NEZ041-046>049-061>064-073>077-083>087-302300-
SOUTH CENTRAL NEBRASKA

CITY           SKY/WX    TMP DP  RH WIND       PRES   REMARKS
GRAND ISLAND   CLOUDY    44  25  47 S13G22    30.27F
AURORA         CLOUDY    45  25  45 SW15      30.28F
HASTINGS       CLOUDY    44  23  43 S14G20    30.27F
HEBRON         CLOUDY    43  24  45 S12G17    30.34S
HOLDREGE       CLOUDY    44  24  46 S14G21    30.23F
KEARNEY *      CLOUDY    45  25  45 S17       30.24F
YORK           CLOUDY    43  27  52 S15       30.31S
$$

NEZ011>018-030>034-042>045-302300-
NORTHEAST NEBRASKA

CITY           SKY/WX    TMP DP  RH WIND       PRES   REMARKS
NORFOLK        MOSUNNY   44  27  51 S21G28    30.24F
ALBION         PTSUNNY   44  26  49 S13G21    30.25F
BLAIR          MOSUNNY   38  25  58 S12       30.33F WCI  30
COLUMBUS *     PTSUNNY   43  27  52 S16       30.30F
FREMONT        PTSUNNY   41  26  55 S14       30.32F
TEKAMAH        SUNNY     41  26  55 S16       30.33F
WAYNE          MOSUNNY   43  28  54 SW18G26   30.26F
$$

NEZ050>053-065>068-078-088>093-302300-
SOUTHEAST NEBRASKA

CITY           SKY/WX    TMP DP  RH WIND       PRES   REMARKS
LINCOLN        CLOUDY    41  26  55 S14       30.35F
OMAHA EPPLEY   PTSUNNY   36  24  62 S13       30.36F WCI  27
BEATRICE       PTSUNNY   41  26  55 S10       30.35F
FALLS CITY     PTSUNNY   39  23  52 S7        30.40F WCI  34
NEBRASKA CITY  PTSUNNY   37  20  50 S8        30.38F WCI  31
PLATTSMOUTH    PTSUNNY   37  23  56 S9        30.36F WCI  30
$$

NEZ044-045-051>053-067-302300-
OMAHA AREA

CITY           SKY/WX    TMP DP  RH WIND       PRES   REMARKS
OMAHA EPPLEY   PTSUNNY   36  24  62 S13       30.36F WCI  27
BLAIR          MOSUNNY   38  25  58 S12       30.33F WCI  30
FREMONT        PTSUNNY   41  26  55 S14       30.32F
MILLARD        MOSUNNY   38  25  58 S10       30.35F WCI  32
OFFUTT AFB     PTSUNNY   37  24  60 S10       30.35F WCI  29
PLATTSMOUTH    PTSUNNY   37  23  56 S9        30.36F WCI  30
WAHOO          FAIR      41  24  50 S15       30.34S
$$



USA.gov is the U.S. government's official web portal to all federal, state and local government web resources and services.